Flag for Madagascar Weather past 2 weeks in Toamasina, Madagascar

Now
81 °F

Scattered showers. Partly cloudy.


Feels Like: 86 °F
Forecast: 74 / 88 °F
Wind: 16 mph from South

Location: Tamatave

Current Time: Apr 19, 2015 at 7:06:30 PM

Latest Report: Apr 19, 2015 at 6:00 PM


Visibility: N/A

Pressure: 29.92 "Hg

Humidity: 84%

Dew point: 75 °F

Location of ToamasinaLocation

Historic Weather in Toamasina — Graph

°F

Toamasina temperature yesterday

Maximum temperature yesterday: 86 °F (at 11:00 AM)
Minimum temperature yesterday: 72 °F (at 2:00 AM)
Average temperature yesterday: 79 °F

Past Weeks' High & Low Weather Summary

 TemperatureHumidityPressure
High88 °F (Apr 5, 1:00 PM)100% (Apr 5, 6:00 AM)30.07 "Hg (Apr 5, 6:00 AM)
Low70 °F (Apr 17, 6:00 AM)52% (Apr 8, 11:00 AM)29.80 "Hg (Apr 4, 6:00 PM)
Average79 °F82%29.93 "Hg
* Reported Apr 4 6:00 PM — Apr 19 6:00 PM, Toamasina, Weather by CustomWeather, © 2015

Note: Actual official high and low records may vary slightly from our data, if they occured in-between our weather recording intervals... More about our weather records

Advertising

Toamasina weather history for previous 24 hours

 ConditionsComfort  
Time TempWeatherWind HumidityBarometerVisibility
6:00 PM
Sun, Apr 19
81 °FScattered showers. Partly cloudy.16 mph84%29.92 "HgN/A
5:00 PM81 °FBroken clouds.16 mph84%29.92 "HgN/A
4:00 PM82 °FBroken clouds.18 mph79%29.89 "HgN/A
3:00 PM86 °FBroken clouds.18 mph62%29.89 "HgN/A
2:00 PM86 °FBroken clouds.18 mph66%29.89 "HgN/A
1:00 PM86 °FBroken clouds.18 mph70%29.92 "HgN/A
12:00 PM86 °FScattered clouds.16 mph62%29.95 "HgN/A
11:00 AM86 °FScattered clouds.16 mph59%29.98 "HgN/A
10:00 AM86 °FPartly sunny.14 mph62%29.98 "HgN/A
9:00 AM84 °FScattered clouds.14 mph70%30.01 "HgN/A
8:00 AM79 °FBroken clouds.5 mph79%29.98 "HgN/A
7:00 AM73 °FPartly sunny.2 mph89%29.98 "HgN/A
6:00 AM73 °FScattered clouds.2 mph89%29.95 "HgN/A
5:00 AM75 °FPassing clouds.5 mph89%29.95 "HgN/A
4:00 AM75 °FPassing clouds.5 mph89%29.95 "HgN/A
3:00 AM75 °FPassing clouds.5 mph89%29.95 "HgN/A
2:00 AM73 °FPartly cloudy.No wind94%29.95 "HgN/A
1:00 AM75 °FPartly cloudy.No wind89%29.98 "HgN/A
12:00 AM75 °FPartly cloudy.No wind89%30.01 "HgN/A
11:00 PM
Sat, Apr 18
75 °FPassing clouds.5 mph89%30.01 "HgN/A
10:00 PM77 °FPassing clouds.7 mph83%30.01 "HgN/A
9:00 PM77 °FScattered showers. Partly cloudy.9 mph83%30.01 "HgN/A
8:00 PM79 °FScattered showers. Partly cloudy.14 mph79%29.98 "HgN/A
7:00 PM79 °FScattered showers. Partly cloudy.14 mph84%29.98 "HgN/A
Weather by CustomWeather, © 2015

See weather overviewHow to use our weather pages